Theta_e
288 288 288 288 288 288 288 288 288 289 289 289 289 289 290 292 293 294 295 296 297 298 298 299 300 300 301 301 303 304 305 306 308 310 315 319 322 322 321 324 329 331 334 338 340 342 343 343 343 344 344 344 344 343 346 345 344 343 342 345 346 347 345 343 343 343 343 343 343 343 343 344 343 342 342 341 340 339 338 338 337 337 337 337 336
288 288 288 287 288 288 287 287 287 288 288 287 288 288 289 291 292 293 294 295 296 297 297 298 299 299 300 301 301 302 303 304 305 307 308 309 315 320 319 321 325 330 332 334 337 340 342 342 342 342 344 345 344 344 344 345 344 344 343 342 344 347 344 344 342 343 342 342 342 342 343 343 342 341 341 341 339 339 338 338 337 336 337 336 336
287 287 287 287 287 287 287 287 287 287 287 287 288 288 289 290 291 291 292 293 294 296 296 297 297 298 299 299 300 301 301 302 303 304 304 306 308 309 312 316 320 324 328 332 335 337 339 341 340 340 342 342 344 346 346 346 345 344 344 341 344 346 345 344 342 343 343 342 342 342 342 342 341 341 341 340 339 338 338 338 337 337 336 335 335
287 287 287 286 286 286 286 286 286 286 287 287 287 288 288 289 290 291 292 292 293 294 295 295 296 297 298 298 299 300 300 301 301 301 302 304 305 307 309 311 314 320 323 327 333 335 337 338 339 339 341 342 343 343 343 343 344 343 344 344 343 345 344 344 344 342 341 342 342 342 342 341 341 340 340 339 338 338 337 337 337 336 336 335 335
286 286 286 285 285 285 285 286 286 286 286 286 287 287 288 288 289 289 290 291 292 293 295 295 295 296 297 298 298 299 300 300 300 300 301 302 303 304 306 308 311 313 318 321 326 331 334 336 337 338 340 341 342 342 342 340 342 342 343 343 343 342 344 343 341 342 342 343 342 342 341 341 340 340 340 339 338 337 337 337 337 336 336 335 335
286 286 285 285 285 285 285 285 285 286 286 286 286 287 286 286 286 287 287 288 289 291 292 292 294 295 296 297 298 298 299 299 299 299 300 300 301 302 303 305 307 309 312 316 321 325 329 332 334 336 337 338 340 341 342 342 341 341 342 343 345 344 345 346 343 343 343 342 342 342 341 341 340 340 340 339 338 337 337 336 336 336 336 335 334
286 285 285 285 284 284 284 284 285 285 285 286 286 285 285 285 285 285 286 286 287 288 288 289 290 291 293 295 296 297 297 297 298 299 299 300 300 301 301 303 305 307 310 313 313 319 324 328 333 335 336 337 338 339 341 341 341 344 341 346 346 345 341 344 343 342 343 342 341 341 340 340 340 340 339 338 338 337 337 336 335 336 335 334 333
286 285 284 284 284 284 284 284 284 285 285 285 285 284 284 284 285 285 283 284 285 285 286 287 288 289 291 292 294 295 295 296 296 297 298 299 299 300 300 301 303 305 306 308 312 318 320 324 328 331 334 334 336 337 340 341 341 341 341 343 345 343 341 343 343 344 343 341 340 340 340 340 340 340 339 338 338 337 336 335 335 335 334 333 332
286 285 284 284 284 283 284 284 284 284 284 284 284 284 283 284 284 284 284 283 284 284 286 287 287 288 289 290 292 293 294 294 295 296 298 298 298 299 300 300 301 302 302 305 308 311 315 321 325 327 327 329 333 335 336 339 341 342 342 342 345 345 342 340 342 343 342 341 341 340 340 339 339 339 339 338 337 337 336 335 335 335 334 333 332
285 285 284 284 284 283 283 283 283 283 283 283 283 283 283 283 282 283 283 283 282 283 284 285 287 288 288 290 291 292 293 295 296 296 296 297 297 298 299 299 300 300 301 303 306 308 313 319 321 322 320 323 329 333 334 336 338 340 342 343 343 344 343 340 340 341 341 340 340 340 339 339 339 339 339 338 337 336 336 335 335 334 334 333 332
285 285 284 283 283 283 283 283 283 283 282 282 282 283 283 282 282 282 283 283 282 283 283 284 285 287 288 289 291 292 293 295 295 296 296 297 297 298 299 299 299 300 301 302 303 305 309 316 325 328 328 319 326 330 333 335 335 336 338 340 341 343 344 341 339 341 340 340 339 340 339 340 338 339 338 338 337 336 336 335 335 334 333 332 331
285 284 283 283 283 282 282 283 282 282 281 281 281 281 281 281 281 281 281 281 282 282 283 284 285 285 287 288 290 291 292 294 294 295 296 297 297 298 297 298 299 299 301 302 303 306 308 311 319 326 328 325 321 324 329 331 330 333 336 339 340 341 344 342 340 341 341 340 340 339 339 339 338 338 338 337 337 337 336 335 334 333 332 331 330
284 284 283 282 282 282 282 282 282 282 281 281 281 281 282 281 281 281 280 279 280 282 282 283 282 283 287 288 289 292 292 293 293 294 295 296 296 297 297 297 298 298 299 300 302 303 306 310 314 324 327 330 327 319 321 324 322 328 334 337 338 340 342 341 340 340 340 340 340 340 338 339 338 338 337 337 337 336 336 336 334 333 332 331 331
283 283 283 282 282 281 281 281 281 281 281 282 281 281 281 280 280 279 281 279 279 281 282 283 283 284 283 285 287 290 292 292 292 293 294 295 296 296 297 297 297 298 299 300 302 304 305 307 312 319 326 328 329 330 326 323 322 326 333 335 337 338 341 343 340 342 340 340 340 340 338 338 338 338 338 337 336 336 335 334 334 333 332 332 331
283 283 282 282 281 281 281 281 281 281 280 280 280 280 280 280 279 278 278 279 279 281 281 283 281 282 283 283 283 285 289 291 292 293 294 296 296 296 297 298 299 301 304 305 306 306 306 308 310 315 324 327 329 330 329 321 322 318 324 328 332 336 339 343 341 343 340 341 340 339 339 338 338 338 338 336 336 335 335 334 334 333 331 331 331
283 282 282 282 281 281 281 281 280 281 280 279 279 279 279 279 279 279 278 276 278 278 281 281 280 279 278 284 283 283 281 286 289 291 294 294 294 294 296 296 296 297 297 297 300 305 312 315 315 315 319 325 328 330 329 329 322 313 314 317 322 331 336 340 342 342 340 341 340 340 339 338 338 338 338 336 336 336 334 334 333 333 332 332 331
282 282 281 281 281 281 280 280 280 280 280 279 279 279 279 279 279 278 278 277 276 278 279 280 280 281 280 279 280 281 283 285 286 286 290 291 293 295 295 295 296 297 298 297 298 298 299 300 307 319 321 323 326 328 329 328 327 321 320 312 317 323 327 336 342 343 345 343 342 339 339 338 338 338 337 336 336 336 335 334 333 333 332 332 331
281 281 281 281 280 281 280 280 280 280 280 279 279 279 279 278 279 278 278 278 277 276 276 279 279 280 281 282 282 280 281 283 283 279 289 290 291 292 293 294 295 295 295 296 296 299 303 306 307 309 319 323 325 327 329 328 326 326 326 325 319 324 325 328 338 343 345 345 344 341 339 339 337 337 337 336 336 334 335 334 333 332 332 331 331
281 280 280 280 280 280 280 280 280 279 280 279 278 278 278 279 279 278 278 278 278 275 275 276 278 278 279 280 281 283 284 282 280 283 280 285 289 290 292 294 295 295 296 297 297 297 297 298 300 304 308 316 323 325 328 328 322 321 316 317 319 321 324 323 327 334 340 345 344 342 341 339 337 337 337 336 336 335 334 334 333 333 332 332 331
280 280 280 280 280 280 280 279 279 279 279 278 278 278 278 279 279 278 278 278 277 276 275 276 275 275 279 278 279 281 282 284 285 283 281 280 283 289 291 292 293 294 294 294 295 296 296 298 300 303 306 311 318 323 325 328 327 326 321 316 320 322 323 323 323 324 329 336 342 342 342 342 339 338 337 336 336 335 335 333 333 333 332 331 330
279 279 279 279 279 279 279 279 278 278 278 278 278 278 278 277 277 277 277 277 277 277 276 275 276 275 276 276 278 279 281 283 285 286 283 281 281 282 284 289 292 293 294 295 296 296 296 297 298 300 304 307 311 318 324 325 326 327 321 317 319 322 322 322 322 322 323 326 335 339 340 341 340 339 337 336 336 335 334 333 333 332 332 331 330
278 279 279 279 278 278 278 278 278 278 278 278 278 277 277 277 277 277 277 276 277 276 276 276 276 276 276 276 277 279 281 282 283 283 284 285 281 282 284 285 285 289 294 294 295 296 296 297 297 298 301 306 312 316 322 325 325 326 323 316 317 318 321 322 322 323 324 325 327 330 336 337 339 338 339 338 336 335 334 333 333 332 331 331 331
277 277 278 278 277 278 277 277 277 277 277 277 276 276 277 277 277 277 276 276 276 276 276 276 276 276 276 276 275 275 276 278 280 283 283 282 282 283 285 287 288 288 291 295 295 295 296 297 298 298 300 303 307 312 317 324 317 320 316 317 316 317 320 324 323 321 323 324 325 327 329 331 334 337 338 338 337 335 334 334 333 332 332 330 331
276 276 276 277 277 276 277 276 276 276 276 276 276 276 276 276 276 276 276 276 276 276 275 275 275 275 275 275 275 276 276 277 279 281 282 282 283 282 283 285 287 289 292 294 295 295 295 295 295 296 297 298 300 304 307 317 323 312 316 314 317 317 320 322 322 321 322 323 323 325 328 329 330 330 332 335 337 336 335 333 333 333 332 331 330
275 275 276 276 276 275 275 275 275 276 276 276 276 276 276 276 275 275 275 275 275 275 274 275 275 274 274 275 275 275 275 277 278 280 282 283 283 281 283 285 283 285 289 292 291 294 295 295 296 296 298 299 302 306 309 314 322 315 310 314 314 316 316 318 320 321 321 321 321 323 325 326 327 329 332 332 334 335 335 334 333 334 333 332 332
274 274 275 275 275 275 275 275 275 275 275 275 275 276 276 275 275 275 274 275 275 275 275 275 275 275 275 274 275 275 275 276 276 277 278 280 280 280 280 282 283 283 287 290 292 291 292 295 296 296 297 298 299 302 306 312 318 313 307 318 317 314 315 319 321 321 320 320 321 321 321 322 326 327 328 333 334 334 334 334 334 334 332 332 332
274 274 275 274 274 274 275 274 275 275 275 275 275 275 275 275 274 274 274 275 274 275 274 274 274 274 275 274 274 275 275 275 275 275 276 278 280 280 280 278 279 282 284 288 290 290 291 293 296 296 297 299 303 309 312 315 313 312 306 316 324 312 314 317 321 320 319 319 319 320 320 320 323 326 326 326 330 330 334 332 333 333 332 331 331
274 274 274 274 274 274 274 274 274 274 274 274 274 274 274 274 274 274 273 275 274 274 274 274 274 274 274 274 274 273 274 274 275 275 275 277 279 280 281 280 278 276 281 283 287 288 293 291 294 296 297 298 301 303 304 309 315 311 304 319 322 320 312 315 318 320 320 320 319 319 319 319 320 321 322 323 323 323 323 325 326 326 325 325 325
273 274 273 274 274 274 273 273 273 274 274 274 274 274 274 273 273 273 273 274 274 274 274 274 274 274 274 274 273 273 274 275 275 276 277 278 278 279 281 280 280 278 278 280 285 287 290 292 290 294 298 301 302 306 309 312 312 312 317 318 321 324 315 313 316 319 320 320 319 319 319 319 318 319 320 321 321 322 324 324 323 324 324 324 325
273 273 273 273 273 273 273 273 273 273 273 273 273 273 273 273 273 273 273 274 273 274 274 274 273 274 273 274 274 273 274 275 275 275 276 277 279 280 280 280 281 279 279 279 282 289 289 292 293 292 296 300 304 307 312 313 308 311 318 319 321 323 315 310 314 317 318 318 319 320 319 318 317 317 318 320 321 321 323 322 322 322 323 324 326
272 272 272 272 272 272 272 272 272 272 273 273 273 272 272 272 272 272 273 273 273 273 273 273 273 273 273 272 273 273 273 273 273 274 275 275 276 278 279 281 282 282 281 281 280 288 291 289 292 295 295 299 301 301 302 305 309 311 317 320 321 315 311 312 310 314 316 316 317 318 318 317 317 317 316 318 319 320 321 321 320 321 322 323 326
272 272 272 271 271 271 271 271 271 271 271 271 271 271 270 271 271 271 271 272 271 271 272 273 273 273 272 272 273 273 273 275 275 275 277 278 278 278 279 280 281 282 283 282 282 285 291 291 292 294 296 296 298 298 299 301 304 302 315 319 320 310 316 320 309 311 313 315 316 317 317 316 317 317 317 316 319 319 320 319 319 320 322 322 324
271 271 271 271 271 271 270 270 270 269 269 269 269 269 269 269 269 270 270 270 270 270 271 272 272 272 272 272 272 272 273 273 273 273 274 276 278 279 280 281 281 283 284 284 284 285 290 293 293 293 295 296 296 297 298 300 302 306 308 319 319 319 319 320 318 308 311 314 315 316 316 316 316 317 317 316 317 319 319 320 320 319 320 322 323
271 270 270 270 270 269 269 268 268 268 268 268 268 268 268 268 268 269 269 269 268 269 269 270 271 272 272 272 272 272 273 272 273 273 273 273 275 279 281 281 282 283 285 285 285 287 287 291 291 294 294 297 294 297 298 299 301 303 308 316 319 318 318 319 319 317 309 312 314 314 315 315 315 317 317 316 317 318 319 319 318 316 317 320 319
270 269 269 269 268 268 268 267 267 267 267 267 267 267 267 267 267 267 268 268 267 267 268 268 269 270 270 271 271 272 273 272 273 273 274 274 275 276 278 281 282 283 285 286 286 286 287 289 292 292 293 294 294 295 297 299 301 304 307 313 316 317 317 318 318 318 309 312 313 314 314 314 315 315 315 315 315 316 316 316 316 315 316 317 317
268 268 268 268 267 267 267 267 267 267 266 267 267 267 267 267 266 267 267 267 267 267 267 268 268 269 269 269 270 272 273 272 272 273 274 274 275 277 279 281 282 283 285 287 288 288 289 287 290 291 292 292 294 296 298 299 301 302 305 311 315 315 316 317 318 318 312 311 312 312 312 313 313 314 313 313 314 315 315 315 314 314 314 314 315
267 267 267 267 266 266 265 265 266 266 266 266 266 267 266 268 267 266 267 267 267 267 267 268 269 269 269 269 270 271 272 272 272 272 273 274 277 279 280 281 282 283 285 287 289 290 289 287 289 291 293 293 294 295 297 296 298 300 302 307 311 313 314 315 317 317 309 309 310 310 311 312 312 313 313 313 313 314 314 314 314 313 313 313 313
266 266 265 265 265 265 265 265 265 266 266 266 266 266 267 266 267 267 267 267 267 267 268 268 268 269 269 269 270 271 271 270 270 271 272 272 273 274 277 281 282 284 285 286 289 289 289 289 289 289 291 291 291 292 294 297 297 297 299 302 309 313 312 311 313 314 313 315 315 314 310 311 310 312 313 313 313 313 313 313 312 312 310 310 311
264 264 264 264 265 265 265 265 265 266 266 266 266 267 267 267 267 267 267 267 267 268 268 268 269 269 269 269 270 270 270 270 271 271 271 271 272 272 274 276 280 283 284 286 288 288 288 288 288 289 289 291 292 291 294 297 298 299 298 300 299 305 311 311 309 311 313 314 312 310 312 312 310 312 311 311 312 312 312 312 312 311 309 309 310
264 264 264 264 264 265 265 265 266 266 266 266 267 267 267 267 267 267 267 268 268 268 269 269 269 269 270 270 270 271 271 271 271 271 272 271 272 273 275 277 277 279 282 284 286 287 287 287 287 288 290 290 291 293 294 294 294 294 298 301 301 299 304 310 311 309 311 312 311 312 309 309 309 310 309 310 311 311 311 310 309 309 306 308 309
264 264 264 264 264 265 265 266 266 267 266 266 267 267 267 268 268 269 269 269 269 269 269 269 269 270 270 271 271 271 272 274 275 275 275 275 273 273 276 278 278 279 280 283 286 286 286 286 285 287 287 287 290 291 291 292 292 292 296 301 303 304 304 308 310 313 311 311 310 311 311 312 311 311 312 313 313 310 310 308 308 304 305 308 309
263 264 264 265 265 265 265 266 266 266 266 267 268 272 273 270 270 271 271 272 272 272 271 270 270 271 271 271 272 274 275 275 276 276 277 278 278 277 276 277 278 279 281 282 284 285 285 284 284 285 285 286 288 291 292 293 294 295 296 298 301 302 303 304 306 308 311 312 310 309 310 312 313 311 312 312 311 310 312 312 312 309 306 309 310
263 264 264 264 265 265 265 265 265 265 266 266 271 273 274 275 273 271 271 272 273 273 273 272 272 272 273 273 273 274 274 276 275 277 278 279 279 280 280 280 280 279 279 280 283 285 284 284 285 285 285 285 287 290 292 294 295 295 296 299 303 302 300 301 300 303 309 312 309 308 307 309 312 310 311 311 311 313 313 313 308 305 307 309 309
263 264 264 264 264 265 265 265 265 265 265 269 272 273 274 275 276 273 273 273 273 273 274 274 273 273 273 273 274 274 274 274 274 274 275 277 278 279 280 281 282 282 283 281 280 282 284 284 284 284 285 285 286 289 291 294 295 296 297 298 301 302 300 301 302 301 306 311 309 307 306 307 310 310 310 311 312 313 314 311 307 306 308 309 309
263 263 264 264 264 264 264 264 264 265 265 269 272 273 274 276 277 276 273 274 274 274 274 274 274 274 274 274 274 274 275 276 276 275 275 275 277 278 279 280 281 283 284 285 285 284 285 285 284 284 285 286 286 287 290 294 297 296 297 296 300 302 303 301 302 304 306 312 310 306 304 306 308 307 309 310 311 313 312 308 307 307 308 308 308
262 262 262 263 263 263 263 263 264 264 265 268 272 274 275 276 277 277 274 274 274 275 275 275 275 275 275 274 274 274 275 275 275 275 275 275 275 275 276 278 278 280 282 284 285 286 286 286 285 284 286 287 286 287 289 291 293 295 295 296 299 301 302 302 304 306 309 312 309 305 303 304 307 308 307 309 309 310 311 308 306 307 308 308 308
261 261 262 262 262 262 262 263 263 263 264 270 273 275 275 277 277 277 274 274 274 274 274 274 275 275 276 276 275 275 275 275 275 275 274 274 274 274 275 276 279 280 281 281 282 284 285 286 286 286 287 287 288 288 289 291 290 294 299 298 300 302 303 304 303 305 307 310 309 306 301 303 306 307 306 307 307 308 308 307 306 306 307 307 307
261 262 262 262 261 261 262 262 263 263 265 271 273 275 276 277 278 274 273 273 273 273 273 274 274 275 276 276 276 275 275 275 277 279 278 276 275 274 274 276 279 281 282 284 285 286 286 287 287 287 287 288 289 289 289 291 292 293 296 299 299 300 300 300 300 302 303 306 308 306 302 302 305 306 305 305 306 306 305 306 305 306 307 307 307
260 260 260 261 261 262 262 262 263 264 265 269 273 275 275 277 276 273 272 272 272 272 273 274 274 275 276 276 276 276 275 275 277 279 279 279 275 274 274 275 276 279 281 284 286 287 287 288 288 289 289 290 291 291 292 292 290 291 291 296 297 298 299 298 298 300 301 302 305 305 302 300 302 305 301 302 303 302 304 305 307 306 306 306 307
259 260 260 260 261 262 262 263 264 265 266 270 273 274 275 276 276 272 271 271 271 272 272 273 274 275 275 278 278 277 276 275 278 280 280 278 276 275 275 275 276 276 278 282 284 285 287 288 288 289 289 289 290 291 291 292 292 291 289 290 296 299 299 299 297 299 300 302 302 304 301 299 301 301 299 298 298 299 302 304 304 306 305 305 306
259 260 260 260 261 263 264 265 268 268 267 269 272 274 275 276 274 272 272 271 270 271 271 272 274 274 275 277 278 278 278 278 280 280 280 279 276 276 276 276 276 276 278 280 282 283 285 285 286 287 287 288 289 289 289 291 292 291 292 293 298 299 299 299 299 299 298 299 299 303 301 298 300 299 299 298 298 295 300 301 301 303 306 306 306
Wind_Speed
6 6 5 6 6 6 6 7 7 8 9 8 8 9 8 8 8 8 8 8 8 9 9 9 8 9 9 10 10 10 10 10 10 11 10 10 10 12 15 17 18 20 22 25 27 27 27 27 28 29 29 27 26 27 26 26 25 28 28 28 25 27 28 31 28 24 25 27 27 26 25 25 26 26 27 26 25 26 26 25 23 24 24 23 24
5 5 6 7 6 6 6 6 7 7 8 9 8 8 9 9 9 9 9 9 9 9 9 9 9 9 9 10 10 10 10 10 11 11 11 11 11 12 15 16 18 22 25 25 27 27 28 29 28 29 30 30 27 26 27 27 25 25 29 29 29 25 28 24 27 26 29 27 27 28 27 27 26 27 27 26 25 26 26 25 24 26 25 25 25
5 6 6 6 6 7 7 7 7 7 7 8 9 9 9 9 9 9 9 9 9 9 9 9 10 9 9 10 10 10 10 10 10 11 12 11 11 12 14 18 19 20 20 23 25 27 28 28 29 27 28 31 30 28 28 28 27 28 30 30 31 27 25 27 23 23 24 27 27 26 26 25 26 27 27 26 26 26 26 25 25 25 25 25 24
5 6 6 6 6 7 6 7 7 7 8 8 8 8 8 9 10 10 10 9 9 9 8 9 10 9 10 11 10 10 10 10 11 11 12 11 11 12 12 13 17 18 19 22 25 27 28 28 29 29 30 29 30 28 27 28 26 29 31 33 32 30 30 30 27 30 28 29 27 26 25 25 25 27 27 26 26 26 26 25 26 25 25 25 25
4 5 6 5 5 6 6 6 6 7 8 9 10 8 8 8 9 9 9 9 10 10 9 9 10 10 10 10 10 11 11 11 11 11 12 12 12 12 12 13 14 18 20 20 23 26 28 29 29 29 30 29 29 30 29 27 27 30 30 34 32 32 29 32 26 27 36 32 30 30 27 26 27 27 27 27 27 26 26 26 26 26 25 26 25
3 3 4 4 5 5 5 6 6 7 7 7 7 7 8 8 9 8 8 9 9 9 10 10 9 10 10 10 10 11 11 11 11 12 11 12 12 12 12 12 12 13 14 18 20 22 25 26 28 29 30 30 30 29 29 28 27 28 32 33 31 31 33 30 30 29 32 27 28 29 28 28 29 29 28 28 28 27 27 27 26 27 25 24 22
3 3 3 3 4 5 5 5 6 7 7 7 7 7 7 8 8 9 9 8 8 9 10 10 11 11 11 10 11 11 11 12 12 12 12 13 12 13 13 12 12 12 13 12 16 20 22 24 26 27 29 30 31 32 30 29 29 27 29 31 30 29 32 29 31 31 33 32 29 30 28 28 30 30 29 29 28 28 28 27 26 25 24 24 24
4 3 3 3 4 4 5 6 7 6 6 6 7 7 7 7 7 8 9 9 10 10 9 10 11 12 11 11 11 11 12 12 13 13 13 13 13 13 12 13 13 12 14 14 14 16 20 21 23 25 26 28 30 31 31 30 30 31 29 30 29 28 30 29 33 34 30 29 30 29 29 30 30 29 29 29 29 28 28 27 27 26 26 25 25
4 4 3 3 4 4 5 6 6 7 7 7 6 6 7 7 7 7 7 9 10 12 11 10 11 11 11 12 12 12 12 12 12 13 13 14 14 14 14 14 14 17 15 14 14 14 18 22 23 24 25 25 26 30 31 31 31 30 30 31 29 27 27 32 32 32 32 32 31 31 31 30 30 30 30 29 30 30 29 28 28 28 27 26 27
5 4 3 3 3 4 5 5 6 6 6 6 6 6 6 7 8 7 7 8 9 10 12 11 11 12 12 12 13 12 12 13 13 13 13 15 14 15 14 14 14 14 14 14 15 15 15 18 23 24 24 24 28 27 31 31 31 31 30 30 29 28 26 31 32 29 30 29 32 32 31 31 31 32 29 30 30 30 29 29 28 28 27 27 28
5 5 4 3 3 4 4 5 5 5 5 6 6 6 6 7 8 9 7 7 9 10 11 12 12 12 13 14 13 14 13 13 13 13 13 15 15 15 13 15 15 15 15 15 15 16 16 15 13 13 14 24 25 25 27 31 32 31 32 31 30 28 28 27 34 32 33 32 32 32 33 33 34 33 32 31 30 30 31 30 29 28 28 28 29
6 5 5 4 4 4 5 5 5 5 6 6 6 6 8 9 8 9 10 8 7 8 10 12 12 14 15 15 14 14 15 14 15 15 14 14 14 13 14 14 13 15 16 14 15 16 16 16 15 14 15 19 24 25 26 26 26 30 31 31 32 32 29 26 30 30 32 33 34 36 33 33 32 33 34 32 30 31 31 31 30 30 30 30 29
6 6 5 4 4 5 5 5 5 6 6 7 7 8 7 8 8 7 9 10 8 6 8 10 13 13 10 13 14 12 15 16 16 15 14 14 13 14 14 14 15 15 15 15 16 17 17 17 16 15 15 14 16 23 26 25 25 25 31 32 32 32 32 28 29 31 30 35 36 37 38 31 34 33 34 36 33 32 31 31 31 31 31 32 32
6 6 5 5 5 5 5 6 6 7 7 7 8 8 8 7 8 9 5 8 9 6 7 9 7 8 15 17 14 12 14 16 15 13 15 14 14 14 14 14 15 14 13 14 15 16 17 17 16 16 16 16 16 14 13 18 21 29 31 34 33 34 34 30 31 33 32 35 34 30 34 36 34 36 35 34 35 32 31 32 32 32 32 33 32
6 6 5 4 5 5 5 5 6 6 7 8 7 8 7 8 8 8 10 7 8 7 6 4 8 10 11 13 14 16 10 7 10 12 11 11 11 13 13 13 15 13 13 13 14 15 15 15 17 17 17 17 16 15 13 14 17 22 27 28 29 33 34 31 33 32 35 36 36 34 32 34 35 37 37 38 35 35 33 33 35 37 36 33 32
7 6 5 5 5 6 6 6 6 6 7 8 8 8 7 7 7 8 8 12 7 8 5 5 6 8 8 3 11 10 17 5 4 9 8 11 14 16 14 14 16 16 13 14 14 14 14 15 17 18 18 18 16 14 14 13 18 20 24 27 27 31 35 35 33 36 34 36 38 35 35 35 37 37 38 37 36 35 36 33 35 36 34 35 33
7 6 6 6 5 6 7 7 7 7 7 8 8 8 8 8 8 8 8 9 13 8 8 6 7 7 8 9 7 5 9 14 16 17 9 11 14 13 13 13 13 13 11 13 13 13 14 16 18 18 19 18 18 16 14 16 14 15 18 24 28 30 30 35 36 34 34 37 41 45 50 42 41 37 40 41 37 37 36 34 35 34 35 35 33
7 6 5 6 6 6 7 8 8 8 7 8 9 9 9 9 8 9 10 10 11 13 11 6 8 9 11 12 10 12 13 13 12 16 9 9 15 14 18 17 16 17 16 16 16 14 12 13 14 16 18 19 18 16 14 16 15 13 13 16 27 31 30 32 36 33 33 32 37 33 35 41 40 41 36 37 37 39 38 35 35 36 36 35 34
6 5 5 5 6 6 7 7 8 8 8 8 9 10 9 9 8 9 10 10 10 13 14 10 8 10 11 14 16 17 16 14 13 13 20 14 7 11 12 13 13 13 14 14 14 14 14 14 16 15 15 18 19 18 14 14 20 19 19 21 23 27 29 30 31 31 33 31 33 37 39 38 39 41 38 37 35 36 37 37 36 36 36 35 36
7 6 6 6 6 7 7 7 8 8 8 9 10 9 9 9 9 11 10 10 11 12 14 11 9 9 6 11 13 16 18 20 21 17 18 20 21 10 15 18 18 18 18 19 19 17 17 15 15 15 14 16 16 20 17 14 17 18 18 24 24 25 28 29 29 29 29 27 30 37 41 39 36 35 38 38 37 38 38 38 36 37 37 38 38
6 7 7 7 7 8 8 8 8 9 9 10 10 10 11 12 12 11 11 11 10 12 13 13 11 12 9 12 12 14 14 16 17 18 17 19 23 22 19 16 17 18 18 17 16 15 14 16 15 16 15 15 16 17 18 19 16 16 17 24 25 27 28 29 28 28 26 29 29 34 41 41 41 40 38 37 39 40 38 37 39 38 37 37 38
5 6 7 7 7 8 9 9 10 10 10 11 12 12 12 12 12 12 12 14 11 12 14 13 13 13 12 12 12 11 12 13 15 16 18 19 23 22 19 19 20 18 14 15 16 14 15 16 17 17 16 15 14 15 17 19 18 16 18 24 26 28 28 28 28 28 29 28 29 30 37 41 40 41 47 45 43 38 40 39 39 38 38 37 37
5 6 6 8 7 8 9 10 10 11 11 12 12 12 12 12 12 14 14 15 13 13 15 16 14 15 15 12 13 13 12 14 15 14 15 16 16 20 21 18 18 21 19 17 17 18 17 15 14 15 15 14 14 14 16 16 20 20 22 24 25 27 29 29 28 29 30 30 29 30 36 37 38 38 37 39 41 43 42 43 41 39 37 37 38
5 7 6 6 7 8 9 10 11 11 11 11 12 12 12 13 13 12 13 14 14 14 14 16 17 15 17 14 14 14 14 16 16 16 17 19 18 20 17 17 18 18 17 16 16 15 15 15 16 17 17 16 16 15 17 18 18 25 21 25 26 27 28 29 30 30 31 30 29 32 34 36 39 39 39 40 40 41 43 42 41 40 40 40 40
6 7 9 9 9 10 10 10 11 11 12 12 13 14 13 13 14 15 15 15 14 15 14 16 16 15 15 14 14 15 16 16 17 17 18 18 17 17 15 14 16 17 16 16 16 13 13 14 14 14 15 15 15 15 14 16 16 19 23 21 29 28 29 29 29 30 31 32 31 31 36 38 34 36 37 39 41 44 43 43 42 41 42 42 42
9 8 8 10 10 11 12 13 13 13 13 14 14 14 14 14 15 15 16 14 14 17 17 18 18 19 19 17 18 19 18 15 13 14 14 13 14 15 15 14 16 19 16 15 14 15 14 13 14 15 15 16 17 17 16 16 17 21 23 20 24 29 29 30 31 31 31 33 33 33 33 34 42 43 41 40 39 42 44 45 44 42 43 43 43
8 9 9 11 12 11 12 13 13 13 14 14 13 14 14 14 15 16 15 14 16 16 16 18 20 21 21 21 19 21 20 20 17 16 16 17 16 14 13 17 18 17 17 13 16 20 21 12 11 14 15 15 14 14 14 14 17 23 21 20 17 27 28 31 31 32 32 32 33 34 35 34 33 38 42 42 42 42 41 43 42 44 44 42 42
9 9 11 10 11 12 12 13 13 13 14 15 15 14 14 15 15 15 17 12 15 19 17 18 22 22 22 21 20 21 21 19 19 17 17 19 17 16 14 14 17 17 15 17 15 18 15 14 12 14 16 14 15 16 19 19 16 21 21 17 17 19 29 30 32 32 32 33 33 33 36 38 39 47 41 43 44 42 43 40 38 39 38 37 36
9 9 11 10 10 11 13 13 13 13 14 14 15 15 15 15 15 17 17 16 17 18 19 20 18 21 18 23 20 19 19 18 18 17 18 18 19 18 17 18 15 19 18 17 17 18 11 11 14 11 11 13 14 13 13 15 16 18 15 17 18 17 24 31 32 32 32 34 33 34 35 37 32 33 47 45 44 44 44 42 40 39 38 36 35
9 10 10 12 12 12 12 13 13 13 14 14 14 15 15 15 16 18 18 17 19 16 18 16 19 18 18 20 18 19 18 18 19 17 18 18 17 17 19 18 16 20 18 18 20 12 13 11 11 15 10 12 12 12 11 13 17 20 17 18 18 18 24 28 31 31 31 32 33 34 34 32 31 28 35 44 42 41 39 38 37 36 35 34 33
10 10 12 12 12 12 12 13 13 14 14 13 13 14 14 15 15 16 18 15 17 16 17 15 17 15 19 20 20 19 19 20 19 18 18 18 20 19 18 17 16 18 17 18 22 13 12 11 11 13 15 11 10 12 14 13 16 19 19 19 19 23 27 24 29 30 30 31 32 33 33 32 31 32 30 37 43 41 40 38 34 33 34 35 34
10 11 11 12 13 13 12 13 14 14 14 14 14 15 14 14 14 13 15 16 18 18 17 16 14 16 18 20 19 17 16 16 15 13 14 16 17 18 19 18 17 18 16 17 23 25 9 11 10 12 15 14 13 15 17 14 16 19 20 19 21 23 20 18 28 30 30 31 31 32 33 33 33 33 33 32 36 40 39 38 38 36 35 35 33
10 11 12 13 13 13 14 14 14 14 14 15 13 13 13 14 14 15 16 16 17 16 16 17 17 17 19 19 20 20 19 20 19 17 18 19 18 17 17 16 17 16 17 19 21 25 13 11 10 11 13 12 15 14 16 15 13 11 20 21 19 18 17 16 17 29 31 31 32 32 31 33 38 41 40 37 35 37 38 37 34 34 35 35 34
10 12 13 12 12 13 13 14 14 15 15 15 14 13 14 17 16 13 15 16 17 18 17 18 17 15 16 18 19 20 18 21 19 22 19 17 18 17 16 15 14 15 17 18 22 18 18 9 11 9 12 12 15 14 13 14 12 11 15 19 17 18 18 17 15 18 32 31 31 31 32 33 34 42 45 42 42 39 38 37 36 33 33 34 34
10 10 11 12 13 13 14 14 14 14 15 15 14 14 15 16 18 16 17 17 18 18 18 18 18 17 18 17 18 18 15 17 18 19 18 19 18 20 21 15 16 16 16 19 19 20 16 12 9 11 11 12 12 15 13 11 12 13 14 17 17 16 17 18 16 15 28 31 32 32 33 34 34 32 37 34 34 41 41 37 35 33 33 33 34
10 10 11 12 13 13 14 15 15 15 15 15 15 15 17 18 17 19 17 18 18 18 18 18 18 17 17 17 18 17 17 19 18 17 16 17 18 17 18 15 15 16 16 16 20 19 14 14 11 9 11 12 13 12 12 11 11 12 13 13 16 18 16 17 18 16 24 33 34 34 34 35 35 33 32 32 30 31 36 36 35 33 33 32 33
10 11 11 11 13 13 13 14 15 16 16 17 18 18 16 17 18 18 19 19 18 19 18 17 18 18 18 18 18 17 16 15 14 14 14 17 15 15 16 14 13 14 13 15 17 16 14 14 12 9 9 10 12 13 10 11 12 12 12 13 12 14 16 16 16 17 27 36 36 37 35 35 36 37 34 33 32 30 31 32 33 32 31 32 32
11 11 12 12 12 14 14 15 15 16 16 16 18 18 17 16 17 18 18 19 19 18 19 17 18 17 17 18 17 17 19 18 18 18 17 18 16 18 18 14 13 12 16 17 16 14 13 13 11 11 8 12 12 12 10 9 11 12 13 12 12 15 15 14 13 13 16 22 22 29 35 35 36 38 37 34 33 33 32 32 31 31 30 31 31
11 12 13 13 12 13 15 15 15 16 17 17 17 18 18 18 19 18 19 19 19 18 17 19 17 17 17 17 18 17 18 18 18 18 17 19 17 19 18 17 15 15 16 14 12 11 11 11 10 11 11 10 10 14 10 7 11 10 12 12 10 7 14 15 14 13 14 19 28 30 26 25 35 32 36 36 34 33 33 32 33 33 31 31 31
11 12 13 14 14 12 14 14 15 15 17 18 18 17 18 18 17 19 17 18 19 18 20 19 19 17 18 18 19 19 18 17 18 18 19 18 15 18 16 14 14 15 16 15 11 10 10 9 10 9 7 9 10 11 10 7 10 10 9 12 10 7 6 15 17 17 15 16 19 21 23 23 24 31 36 34 35 34 33 32 33 32 32 31 30
10 11 12 13 14 15 14 15 16 16 16 16 14 15 17 19 18 18 19 19 20 20 19 20 18 17 17 18 18 19 20 24 28 26 24 22 16 16 16 14 14 13 15 16 10 8 8 6 9 9 10 10 10 10 9 8 11 12 9 10 12 9 7 11 15 19 20 19 16 19 18 17 15 15 16 16 21 28 27 28 25 29 30 30 30
11 11 12 12 13 16 17 15 14 14 15 12 17 27 26 20 21 19 17 17 18 18 18 18 18 17 20 17 19 27 28 28 28 29 29 30 31 24 19 15 13 14 15 15 14 10 8 8 8 9 10 11 11 10 10 10 10 8 10 12 13 9 8 10 10 11 17 21 18 17 16 17 19 17 16 17 17 21 17 19 18 21 27 30 30
11 11 11 12 14 14 15 17 17 15 13 14 28 29 30 31 23 20 18 18 18 20 17 20 17 17 16 20 17 21 24 23 23 28 28 31 31 31 33 33 27 19 15 15 13 9 10 10 7 8 11 12 12 10 10 11 9 9 11 12 12 11 10 13 14 9 12 22 19 18 15 15 19 19 17 17 17 16 17 17 26 28 31 31 30
9 9 11 13 13 14 14 15 16 16 16 22 30 30 31 31 28 22 18 16 17 15 19 17 18 16 18 18 18 13 17 19 17 17 23 28 29 30 31 31 31 33 31 21 17 14 11 9 9 10 11 11 11 10 10 10 10 10 11 12 12 13 12 13 15 15 12 20 22 19 17 15 16 18 17 17 17 17 19 22 28 27 28 30 30
10 10 13 13 13 15 14 15 16 16 16 24 29 32 31 31 31 27 18 17 16 18 16 19 19 19 17 17 17 15 14 26 21 18 16 18 25 30 32 32 32 32 30 33 32 23 15 11 11 12 12 10 11 11 10 10 9 11 10 13 13 14 16 12 11 17 19 21 23 21 19 16 17 17 17 15 15 15 17 22 27 28 28 28 28
10 11 12 13 14 13 13 15 16 16 17 23 30 31 32 31 31 28 18 18 17 18 18 19 18 19 16 16 16 17 15 18 14 19 15 18 17 18 18 19 20 23 27 31 31 31 22 14 12 11 13 9 12 10 10 11 13 10 11 13 13 15 16 18 12 17 19 19 23 20 16 16 17 18 18 16 15 14 14 22 30 29 29 29 28
10 11 11 13 12 12 12 13 14 15 15 27 30 32 31 31 31 27 16 16 16 17 17 17 17 18 18 16 18 18 19 18 14 18 15 17 16 16 18 20 19 18 16 16 18 16 15 13 12 14 13 14 13 12 12 11 14 16 12 14 14 15 15 15 10 14 18 19 23 22 20 16 16 19 17 16 15 15 13 20 27 27 28 29 29
9 9 10 10 12 13 13 13 14 15 16 28 30 30 32 31 32 18 15 17 18 18 18 17 18 17 17 18 18 18 19 19 21 27 24 19 15 17 18 18 16 16 15 16 20 18 15 13 12 12 13 15 15 13 13 11 12 14 15 14 14 14 15 15 13 13 15 12 19 19 16 16 14 17 15 12 13 14 13 13 24 29 29 29 29
10 10 10 10 10 12 14 13 14 15 15 22 29 31 30 31 25 15 16 15 16 18 18 18 17 17 17 17 18 17 18 18 23 27 27 26 18 18 18 17 15 15 14 13 19 25 26 25 23 22 23 24 24 24 24 26 19 17 16 15 16 11 15 18 16 16 15 14 14 17 19 17 14 15 12 11 14 13 14 14 16 26 29 29 29
11 10 10 10 9 10 13 15 13 15 15 22 31 30 30 29 26 19 16 16 16 17 17 18 17 17 19 27 25 20 20 18 24 27 27 23 17 17 17 16 16 15 15 13 11 14 23 24 25 24 25 27 27 27 26 25 26 21 14 17 12 11 15 17 15 15 13 14 14 17 17 16 15 14 14 7 7 5 11 12 15 21 28 27 31
10 10 10 10 10 10 12 14 19 19 15 19 27 28 29 29 25 16 16 14 16 16 17 18 17 17 17 19 26 25 22 23 29 28 29 25 17 17 15 15 17 17 15 14 14 13 11 12 13 15 16 19 17 15 15 21 24 24 19 19 13 15 17 19 19 16 15 12 10 18 19 13 16 15 16 12 11 3 7 10 13 13 17 16 18
Wind_Direction
4 2 354 1 356 353 349 348 346 344 343 343 344 337 334 331 328 326 324 320 317 312 311 307 306 307 305 305 305 304 304 303 301 301 299 297 293 290 290 287 279 273 266 264 265 265 265 263 261 261 261 255 248 244 239 235 231 237 239 232 229 226 215 208 211 199 196 194 194 190 191 188 178 173 175 174 171 168 168 169 172 173 172 171 169
2 357 357 356 353 349 349 348 344 346 347 341 341 336 332 329 329 327 325 322 318 313 311 305 302 298 300 300 299 299 299 300 301 301 301 300 297 295 292 286 279 273 269 263 261 259 262 265 263 261 260 259 253 244 241 238 228 233 238 236 228 224 222 208 208 199 200 198 196 191 191 186 179 174 175 173 171 169 168 169 171 175 174 173 170
2 357 356 355 351 349 349 345 344 348 346 339 335 335 331 329 328 327 325 322 316 313 312 308 302 298 292 291 293 295 295 295 295 295 295 294 292 291 291 288 285 281 273 267 260 257 259 262 264 263 263 262 257 247 240 238 234 230 235 234 232 227 222 217 208 202 200 197 194 194 189 187 180 176 175 173 173 170 170 169 172 175 174 174 172
358 355 354 350 349 346 343 344 342 339 339 334 329 326 326 322 325 325 321 318 315 314 312 307 303 298 297 291 288 285 288 291 293 293 291 291 289 288 286 287 286 282 278 273 268 262 258 257 260 264 264 262 263 257 249 241 234 234 234 233 230 226 224 223 213 198 200 198 194 193 191 189 182 175 174 172 172 171 170 170 174 176 175 174 172
351 351 346 344 341 338 341 338 335 333 329 325 320 321 324 325 323 324 320 320 317 317 316 309 305 303 300 295 292 287 284 283 284 288 289 289 288 286 284 285 284 284 278 271 267 264 259 256 254 257 259 261 261 261 254 249 237 237 234 238 235 231 225 222 223 220 204 191 190 191 190 185 183 180 175 172 172 172 171 170 173 175 175 174 175
328 340 340 340 335 332 330 330 330 326 321 322 325 330 328 328 326 324 321 317 313 310 312 309 306 305 303 302 295 293 290 285 282 279 281 285 287 284 283 281 281 280 282 279 272 263 258 254 252 251 254 257 260 259 257 253 247 237 237 236 236 234 225 223 217 214 209 198 187 187 188 186 184 180 175 173 173 173 172 171 174 174 174 175 173
304 327 333 333 327 326 324 326 324 319 319 321 322 324 323 324 327 325 320 316 310 307 305 300 299 297 296 297 296 297 295 290 286 282 277 275 274 279 282 279 276 279 278 277 271 265 257 252 248 243 246 251 256 258 258 257 255 247 239 236 235 233 234 222 222 212 205 203 196 188 188 186 185 183 176 174 174 174 172 173 175 176 175 173 170
290 303 313 324 325 322 324 322 322 322 320 318 321 319 321 316 318 321 320 316 313 305 298 290 287 287 287 288 287 286 286 287 284 282 280 277 271 270 273 277 278 276 279 277 276 273 268 256 248 243 240 244 249 253 255 254 254 254 253 244 238 234 233 228 222 216 204 200 195 195 188 187 184 182 179 175 174 173 173 173 174 173 174 175 175
279 287 301 316 320 320 318 317 318 319 317 319 314 318 318 315 313 314 311 308 309 305 302 296 292 286 284 280 279 280 277 279 277 278 280 275 275 271 269 267 273 275 272 271 270 267 264 261 256 245 239 238 241 246 251 254 255 253 253 251 241 232 227 232 229 217 206 201 195 193 192 187 184 184 180 177 174 174 174 175 174 174 176 176 173
277 283 287 296 304 307 305 305 306 308 309 310 309 308 311 315 313 313 314 309 309 308 304 301 297 295 289 283 281 277 278 276 275 276 273 273 273 272 270 272 266 265 271 270 268 266 265 258 252 249 240 234 237 240 245 247 249 252 252 252 247 234 226 228 226 220 211 201 196 193 190 188 184 182 181 179 175 174 175 175 176 176 176 172 175
279 278 287 299 301 295 296 299 300 301 304 304 307 309 312 314 311 310 308 303 303 304 301 300 296 293 293 290 285 281 278 275 276 274 271 270 269 267 270 268 268 265 260 265 267 267 264 263 257 248 239 230 233 233 237 241 245 247 249 249 253 242 229 227 229 220 213 202 197 195 190 189 187 183 182 179 175 174 176 176 176 176 175 175 178
278 280 283 297 305 306 304 304 306 304 305 308 311 317 315 314 312 313 311 306 298 300 307 308 301 295 290 284 276 278 274 271 273 271 272 271 271 271 266 265 266 267 264 258 264 266 263 260 256 250 250 239 226 231 232 236 239 243 246 247 246 249 239 225 225 221 214 204 197 196 194 188 184 184 182 180 176 175 176 177 176 175 175 175 177
276 280 287 295 298 302 303 306 307 306 304 303 305 303 304 306 308 306 309 311 309 308 310 312 308 301 283 281 287 274 274 273 269 269 269 268 269 268 267 264 261 261 262 261 257 258 261 258 254 250 244 245 235 223 226 229 234 236 241 245 245 243 243 225 224 220 215 209 200 194 193 186 186 182 181 180 179 178 174 172 174 174 175 177 177
277 282 288 293 302 305 305 302 308 301 293 291 295 297 299 305 313 310 302 305 300 305 307 314 303 316 320 316 299 284 259 253 252 258 254 255 258 260 262 262 261 262 265 266 264 259 258 259 256 251 245 244 240 234 219 224 228 231 236 240 242 242 241 230 224 223 216 211 197 191 192 192 183 183 181 180 180 175 175 175 175 175 176 179 178
268 272 275 276 278 284 287 290 287 294 299 296 296 299 302 307 311 310 311 296 283 285 287 309 300 309 296 294 300 327 305 239 244 240 248 255 258 259 260 263 266 268 273 273 271 267 261 257 257 253 247 242 238 234 229 223 221 222 227 233 237 239 242 231 221 224 221 210 203 190 189 189 186 184 184 182 177 176 176 178 178 179 179 179 178
278 281 281 281 289 293 296 294 294 293 293 296 295 293 300 304 305 302 303 303 294 287 259 265 271 307 310 269 303 310 303 310 4 292 267 265 264 266 264 264 269 271 270 266 269 277 281 276 263 256 250 245 241 233 230 228 220 215 218 223 228 233 237 241 224 219 221 218 202 191 191 186 186 184 182 180 177 176 177 180 181 179 179 180 178
278 274 284 294 297 297 297 297 296 292 292 291 294 293 296 293 293 290 289 290 297 289 280 253 248 238 263 303 302 261 247 291 330 293 269 264 260 258 260 263 270 276 276 277 278 276 277 276 279 271 258 251 243 236 231 229 225 217 217 219 220 223 230 235 236 221 215 216 217 204 187 184 184 181 181 180 176 178 180 182 181 177 178 180 179
269 281 287 296 296 290 288 289 287 286 284 285 289 293 290 290 286 285 283 275 279 292 285 258 245 238 237 244 245 272 299 302 320 295 314 250 274 266 265 265 270 271 269 268 271 272 271 277 277 280 278 257 245 239 230 229 224 218 214 217 218 223 222 228 233 230 217 217 217 212 199 179 182 182 179 177 178 180 180 181 181 180 180 180 181
283 283 284 276 276 275 271 271 273 275 278 280 282 282 284 282 283 276 276 278 276 278 280 282 274 247 236 242 252 258 262 279 278 294 295 294 218 270 272 268 265 266 271 268 271 278 280 278 276 274 274 275 255 239 231 229 226 222 210 212 214 219 223 223 226 227 227 220 216 204 197 190 180 178 179 178 176 180 180 180 181 179 178 179 179
290 293 289 289 287 280 276 277 278 280 282 279 280 281 281 275 270 271 272 268 268 267 280 278 271 278 227 248 252 255 256 257 258 264 273 287 291 257 266 274 275 270 266 267 265 266 270 272 273 272 272 271 271 250 232 222 227 222 217 209 213 216 220 223 220 221 223 225 219 207 197 190 186 180 177 178 178 181 181 182 181 180 180 178 178
280 289 289 289 288 288 289 288 288 287 285 282 280 279 277 278 277 273 268 270 263 266 270 271 268 267 272 263 260 258 258 254 255 254 258 273 276 282 280 278 272 266 263 260 261 260 267 274 274 275 272 271 272 270 246 230 222 220 216 207 210 215 218 220 219 216 213 215 219 213 202 195 189 183 182 182 181 181 180 181 181 182 179 179 178
283 280 284 283 285 289 290 289 287 286 285 282 282 282 279 277 275 272 273 270 266 261 260 265 266 267 259 265 265 265 260 257 251 251 257 252 266 277 278 279 277 270 262 255 254 260 267 272 272 271 269 267 266 268 259 237 224 218 214 205 205 213 217 218 216 213 212 210 212 208 204 197 193 188 183 181 181 180 179 180 181 180 180 179 178
293 287 281 287 285 283 287 289 288 285 284 283 282 283 283 282 281 277 272 266 266 263 263 262 264 265 264 260 263 262 259 264 264 259 256 259 261 264 271 269 268 274 263 255 252 255 257 257 265 271 274 276 279 276 273 255 227 216 211 202 204 210 216 217 214 211 210 209 208 206 203 201 193 187 184 181 177 179 181 179 181 180 180 179 178
295 295 290 294 293 291 288 288 285 283 281 282 283 284 285 285 282 278 275 271 266 263 260 262 258 263 263 259 258 258 257 254 257 259 258 261 263 269 273 279 275 269 274 267 257 252 254 259 264 266 264 265 262 260 266 267 242 220 208 204 202 207 214 217 212 210 209 207 206 205 204 204 191 187 182 183 181 179 181 181 180 180 179 179 178
303 300 297 304 303 298 297 291 290 287 286 287 286 286 285 283 280 278 273 270 267 262 262 260 260 259 264 262 260 257 256 252 254 256 257 258 259 269 268 276 282 281 275 271 269 259 248 253 259 261 263 261 261 259 256 254 256 225 206 206 204 205 210 213 212 210 208 207 205 206 202 197 199 189 183 182 181 181 181 180 181 179 178 179 179
294 290 296 299 294 290 290 288 285 285 286 286 287 287 285 282 280 278 276 271 269 266 264 265 265 263 266 265 264 262 260 264 269 270 272 269 261 261 275 275 274 276 275 268 262 266 257 242 246 257 256 253 255 255 254 254 254 239 207 206 205 206 208 211 212 210 209 208 207 206 207 207 194 185 183 180 180 182 183 182 180 178 178 178 178
289 293 296 291 288 287 285 286 287 287 288 287 286 285 281 280 276 276 274 271 270 268 265 266 270 266 264 263 265 265 262 262 257 257 261 262 263 263 268 276 277 271 272 264 264 250 260 259 251 258 259 262 257 253 250 247 246 239 215 205 209 206 210 210 210 210 209 207 207 206 206 200 201 190 182 179 180 180 182 182 180 178 177 176 177
292 294 292 289 289 288 287 284 286 285 285 286 285 282 282 280 278 275 274 271 273 269 267 271 271 267 267 263 262 261 261 260 257 253 253 253 256 260 259 260 267 275 274 272 259 258 241 260 255 246 256 253 252 248 252 251 246 241 218 209 210 208 209 210 209 209 208 207 206 206 204 205 201 186 185 182 179 178 177 180 178 177 175 175 175
295 296 292 290 288 290 292 290 288 286 284 282 281 280 281 280 278 280 275 275 272 269 273 272 268 270 265 263 261 261 260 258 251 248 249 249 251 254 250 250 252 262 270 268 263 261 236 238 267 257 246 255 246 241 240 242 240 232 223 214 209 211 205 208 208 207 208 207 207 206 206 203 209 209 180 180 178 177 175 176 177 175 173 173 174
296 294 294 295 293 292 290 290 290 287 286 285 283 282 283 281 280 281 278 281 277 275 272 272 272 268 265 264 259 258 258 256 260 262 263 261 260 251 246 246 248 256 262 269 271 244 260 240 251 273 267 273 290 292 282 266 248 229 224 214 210 211 204 204 208 207 206 206 207 207 206 204 199 206 197 176 175 174 173 173 174 172 169 170 173
296 297 297 297 298 297 295 294 294 293 291 289 290 288 287 284 283 284 284 281 278 276 274 271 272 267 267 263 261 260 260 260 255 252 251 248 248 253 257 251 248 250 259 266 273 253 235 249 253 258 273 275 278 288 291 290 276 238 224 215 212 209 206 203 205 206 205 205 203 205 204 200 195 189 204 185 171 170 169 168 172 171 168 169 172
296 297 299 300 301 301 299 298 298 297 295 294 293 289 287 281 281 281 282 283 281 282 279 274 269 269 269 266 263 263 261 261 262 262 258 251 246 246 244 247 251 252 254 259 259 265 228 254 255 266 271 279 280 280 281 282 279 254 225 213 209 207 204 208 205 204 205 202 202 199 200 196 187 182 184 185 176 168 167 168 169 170 169 169 170
301 304 303 302 300 299 300 299 299 297 296 296 296 292 289 286 284 283 285 284 283 282 280 276 272 269 269 267 267 262 262 263 266 267 266 266 266 259 254 252 251 249 254 254 257 261 256 252 265 267 273 277 278 264 272 275 281 272 237 213 207 203 202 205 202 204 202 201 198 196 193 191 183 176 177 178 176 170 165 166 167 169 167 167 169
305 303 301 302 301 303 302 301 299 297 294 293 295 291 292 294 287 287 287 286 284 282 282 280 277 274 272 272 269 267 263 261 261 262 260 263 265 266 254 248 249 255 253 256 254 258 261 252 262 256 270 270 274 270 266 276 279 276 254 228 203 199 201 198 201 200 199 195 192 186 183 181 185 178 174 178 172 167 164 164 164 168 167 166 168
305 301 302 302 302 302 299 298 298 295 295 295 294 291 290 290 290 287 287 283 281 280 281 279 278 275 273 273 273 270 267 265 264 263 260 258 256 258 262 260 257 256 256 256 258 257 258 256 255 272 268 272 265 279 273 270 277 278 271 239 206 198 198 195 194 195 191 186 180 178 175 173 172 178 172 174 177 164 160 159 160 167 167 167 168
305 303 301 302 303 301 298 297 295 294 296 296 296 291 291 289 288 288 285 282 279 277 276 278 277 276 273 273 273 272 269 265 262 261 254 251 250 252 254 255 255 257 258 262 254 253 259 266 249 255 267 272 274 267 278 277 276 279 272 256 211 192 193 191 190 188 185 181 176 173 171 166 164 165 165 162 168 164 156 156 160 167 168 167 169
304 304 301 301 300 299 296 297 297 295 293 294 297 294 286 290 285 283 284 282 278 277 273 273 273 274 273 271 270 273 278 281 282 284 281 282 281 267 253 252 254 256 260 259 256 249 252 255 262 254 266 270 274 282 279 286 285 281 282 262 223 188 186 186 185 186 180 178 172 169 166 164 162 161 163 161 160 161 156 156 162 167 166 167 168
303 298 299 298 295 292 292 293 294 294 295 296 295 291 287 281 285 284 280 280 279 277 274 270 270 267 270 271 271 270 271 273 273 273 279 280 278 279 282 274 265 266 265 260 251 247 250 256 266 271 257 267 276 268 269 269 273 281 282 270 238 190 177 173 182 178 178 175 173 169 163 162 163 160 161 161 160 159 158 159 163 164 165 167 168
299 300 297 293 288 287 287 290 291 293 293 290 292 292 290 288 288 280 284 280 276 276 271 267 262 265 262 263 263 264 267 267 268 270 270 268 268 270 267 273 280 275 264 252 239 238 247 256 259 262 267 259 258 274 270 259 264 264 273 274 264 219 166 166 162 164 168 173 161 159 160 160 158 158 160 161 160 158 160 163 164 165 166 168 170
299 298 296 293 291 286 286 285 286 291 294 298 296 291 293 288 288 286 278 282 275 272 271 264 263 257 258 256 260 257 255 259 265 263 263 263 267 265 263 262 264 270 275 267 252 240 245 244 251 258 249 261 255 256 271 267 270 267 254 263 245 240 183 163 159 153 154 158 152 148 148 148 154 155 157 160 159 161 163 164 166 166 166 167 170
295 291 291 292 294 294 294 301 303 306 303 296 295 296 294 291 287 283 282 273 273 269 268 268 255 253 253 258 255 258 253 258 261 258 257 260 261 264 265 259 256 261 265 268 249 237 238 238 258 265 271 273 271 271 258 246 245 250 263 255 246 212 176 167 162 157 153 149 146 139 143 145 143 146 151 153 158 158 160 161 164 165 165 166 167
292 290 291 293 296 308 308 306 304 302 298 296 293 294 294 294 294 290 285 283 281 273 269 264 260 254 259 250 257 256 255 262 265 261 259 261 261 258 261 264 261 260 258 255 254 246 241 242 247 259 264 260 263 259 258 247 247 248 255 259 239 209 173 171 159 168 155 143 140 140 147 153 150 152 157 155 157 158 160 163 167 167 166 166 166
290 292 297 301 311 308 307 310 308 303 296 299 297 297 298 297 297 294 291 286 277 278 271 272 260 259 254 256 249 257 250 255 266 266 265 262 263 262 259 258 258 256 265 276 276 245 238 238 240 252 255 263 263 266 262 257 243 238 242 252 240 198 175 173 163 159 169 143 144 144 149 157 153 154 157 157 159 160 164 169 167 167 167 165 166
295 298 302 307 306 308 306 304 304 297 294 297 300 299 300 299 299 296 292 287 283 278 277 270 269 258 260 258 260 248 255 251 250 252 261 263 265 266 264 260 256 255 253 255 260 266 251 241 236 241 252 254 265 265 268 261 244 239 239 246 250 200 176 186 162 163 172 154 144 148 151 159 157 153 157 160 163 166 168 166 164 166 168 167 167
302 305 309 306 304 307 301 299 297 295 290 296 301 301 301 302 302 301 296 288 283 277 273 271 267 259 260 260 263 252 251 252 256 249 250 254 259 262 264 263 262 257 255 253 252 251 258 250 235 242 243 251 259 258 264 273 250 238 236 241 243 218 178 187 182 153 165 165 146 149 154 161 156 156 158 162 164 164 163 161 164 167 168 167 167
306 306 306 303 303 300 299 297 296 295 291 296 301 304 307 306 306 305 297 294 288 285 283 282 271 257 246 256 259 257 254 251 241 247 241 252 256 262 262 256 252 255 254 253 252 251 247 241 236 240 247 240 251 261 271 290 289 253 228 238 236 221 183 174 188 163 157 163 152 145 148 159 160 157 162 164 160 164 165 167 167 169 168 167 167
312 311 308 307 299 297 294 293 292 289 289 296 304 308 310 310 309 309 301 298 296 295 294 293 292 285 266 256 256 258 261 254 243 241 239 245 246 251 259 261 254 248 244 242 242 244 246 241 239 244 251 252 255 264 272 272 273 282 255 234 235 221 190 154 171 172 161 163 150 148 155 160 160 158 163 159 162 163 165 169 169 169 168 167 168
304 299 299 295 295 298 294 292 292 289 288 301 307 309 313 314 314 311 304 301 301 297 293 290 284 280 275 264 258 259 256 252 248 246 248 246 246 250 253 260 257 246 241 240 239 240 242 242 244 246 249 252 255 256 259 263 272 279 273 244 233 219 186 156 163 169 162 168 157 149 145 154 159 158 157 156 156 158 160 165 173 170 170 169 169
306 306 296 293 291 292 296 293 290 293 289 300 310 314 315 315 316 311 311 306 300 296 292 292 289 286 281 272 262 256 253 250 247 247 246 247 249 248 250 254 261 266 255 248 244 245 245 245 244 245 249 254 256 259 263 266 266 268 281 266 230 208 187 162 165 167 163 158 172 152 146 147 161 153 145 157 162 159 163 168 173 174 171 171 170
306 299 295 292 285 285 291 295 295 293 297 306 312 315 317 317 319 316 311 304 297 297 297 294 291 284 280 278 273 263 256 250 250 246 246 247 247 246 247 251 253 253 257 255 249 246 246 247 246 244 247 252 257 259 261 262 263 263 261 263 238 201 194 158 160 160 155 165 167 148 144 153 148 147 141 127 119 132 163 166 173 174 171 173 170
295 295 292 291 291 293 295 294 297 303 294 300 308 316 319 320 320 316 311 304 300 297 295 293 289 286 281 276 270 264 262 255 249 249 248 246 244 244 248 246 243 243 244 246 249 248 238 234 235 239 243 245 248 253 258 260 261 258 250 248 234 210 189 166 157 156 154 165 169 156 145 153 147 151 144 141 154 132 170 166 174 174 173 169 172